Home > Weather > Bolton > Past weeks

Flag for United Kingdom Past Weather in Bolton, England, United Kingdom — Yesterday and Last 2 Weeks

Now
57 °F

Passing clouds.


Feels Like: 55 °F
Forecast: 57 / 63 °F
Wind: 9 mph from South

Location: Manchester Airport

Current Time: Aug 30, 2016 at 8:28:14 AM

Latest Report: Aug 30, 2016 at 7:50 AM


Visibility: N/A

Pressure: 30.24 "Hg

Humidity: 88%

Dew Point: 54 °F

Location of BoltonLocation

Past Weather in Bolton — Graph

°F

Bolton Temperature Yesterday

Maximum temperature yesterday: 68 °F (at 3:50 PM)
Minimum temperature yesterday: 55 °F (at 10:20 PM)
Average temperature yesterday: 62 °F

High & Low Weather Summary for the Past Weeks

 TemperatureHumidityPressure
High79 °F (Aug 23, 3:20 PM)100% (Aug 21, 9:50 PM)30.30 "Hg (Aug 21, 9:50 PM)
Low48 °F (Aug 27, 4:50 AM)47% (Aug 18, 5:50 PM)29.45 "Hg (Aug 20, 7:20 AM)
Average63 °F80%29.98 "Hg
* Reported Aug 15 7:20 AM — Aug 30 7:20 AM, Bolton, Weather by CustomWeather, © 2016

Note: Actual official high and low records may vary slightly from our data, if they occured in-between our weather recording intervals... More about our weather records

Advertising

Bolton Weather History for the Previous 24 Hours

Scroll right to see more
 ConditionsComfort  
Time TempWeatherWind HumidityBarometerVisibility
7:20 AM
Tue, Aug 30
55 °FSunny.9 mph94%30.24 "Hg10 mi
6:50 AM55 °FClear.6 mph88%30.24 "Hg10 mi
6:20 AM55 °FClear.6 mph88%30.21 "Hg10 mi
5:50 AM55 °FClear.7 mph88%30.21 "Hg10 mi
5:20 AM55 °FClear.8 mph88%30.21 "Hg10 mi
4:50 AM54 °FClear.5 mph94%30.21 "Hg10 mi
4:20 AM54 °FClear.3 mph94%30.21 "Hg10 mi
3:50 AM54 °FPassing clouds.6 mph94%30.24 "HgN/A
3:20 AM55 °FClear.6 mph88%30.24 "Hg10 mi
2:50 AM55 °FClear.9 mph94%30.24 "Hg10 mi
2:20 AM55 °FClear.9 mph88%30.24 "Hg10 mi
1:50 AM55 °FClear.7 mph88%30.24 "Hg10 mi
1:20 AM55 °FPassing clouds.6 mph88%30.24 "HgN/A
12:50 AM55 °FClear.6 mph88%30.24 "Hg10 mi
12:20 AM55 °FClear.5 mph88%30.24 "Hg10 mi
11:50 PM
Mon, Aug 29
57 °FClear.7 mph82%30.24 "Hg10 mi
11:20 PM55 °FClear.6 mph88%30.24 "Hg10 mi
10:50 PM55 °FClear.3 mph88%30.24 "Hg10 mi
10:20 PM55 °FClear.2 mph88%30.24 "Hg10 mi
9:50 PM57 °FClear.3 mph82%30.24 "Hg10 mi
9:20 PM59 °FClear.2 mph82%30.21 "Hg10 mi
8:50 PM59 °FSunny.No wind77%30.21 "Hg10 mi
8:20 PM64 °FSunny.3 mph60%30.21 "Hg10 mi
7:50 PM64 °FSunny.5 mph60%30.21 "Hg10 mi
7:20 PM66 °FSunny.3 mph56%30.18 "Hg10 mi
6:50 PM68 °FSunny.3 mph53%30.18 "Hg10 mi
6:20 PM68 °FSunny.6 mph53%30.18 "Hg10 mi
5:50 PM68 °FSunny.7 mph53%30.18 "Hg10 mi
5:20 PM68 °FSunny.10 mph53%30.21 "Hg10 mi
4:50 PM68 °FPassing clouds.8 mph53%30.21 "HgN/A
4:20 PM68 °FSunny.9 mph53%30.21 "Hg10 mi
3:50 PM68 °FPassing clouds.9 mph53%30.21 "HgN/A
3:20 PM66 °FPassing clouds.10 mph56%30.21 "HgN/A
2:50 PM66 °FPassing clouds.13 mph52%30.21 "HgN/A
2:20 PM66 °FPassing clouds.13 mph56%30.21 "HgN/A
1:50 PM66 °FPassing clouds.9 mph56%30.21 "HgN/A
1:20 PM66 °FScattered clouds.12 mph56%30.21 "HgN/A
12:50 PM64 °FPassing clouds.10 mph60%30.21 "HgN/A
12:20 PM64 °FPassing clouds.12 mph60%30.18 "HgN/A
11:50 AM64 °FScattered clouds.10 mph64%30.18 "HgN/A
11:20 AM63 °FScattered clouds.12 mph68%30.18 "HgN/A
10:50 AM63 °FScattered clouds.13 mph68%30.18 "HgN/A
10:20 AM63 °FScattered clouds.10 mph68%30.18 "HgN/A
9:50 AM61 °FScattered clouds.9 mph83%30.18 "HgN/A
9:20 AM59 °FBroken clouds.8 mph82%30.18 "HgN/A
8:50 AM59 °FScattered clouds.5 mph88%30.15 "HgN/A
8:20 AM59 °FBroken clouds.5 mph88%30.15 "HgN/A
Weather by CustomWeather, © 2016

See weather overviewHow to use our weather pages